When you browse on this site, cookies collect data to enhance your experience and personalize the content and advertising you see.
Visit our Privacy Policy to learn more. By continuing to use the site, you agree to this use of cookies and data.
EN

Hourly Weather Gojszcz

Today, 23 September, Wednesday

Time Temperature Precipitation Wind Pressure Humidity
00:00 +14°C° 0 mm 3 mps 745 mmHg 63%
01:00 +15°C° 0 mm 2 mps 745 mmHg 66%
02:00 +14°C° 0 mm 2 mps 745 mmHg 67%
03:00 +13°C° 0 mm 3 mps 744 mmHg 67%
04:00 +13°C° 0 mm 3 mps 744 mmHg 68%
05:00 +13°C° 0 mm 3 mps 744 mmHg 67%
06:00 +14°C° 0 mm 3 mps 744 mmHg 65%
07:00 +16°C° 0 mm 3 mps 744 mmHg 62%
08:00 +18°C° 0 mm 3 mps 744 mmHg 57%
09:00 +20°C° 0 mm 3 mps 743 mmHg 51%
10:00 +22°C° 0 mm 3 mps 743 mmHg 46%
11:00 +24°C° 0 mm 3 mps 743 mmHg 43%
12:00 +25°C° 0 mm 3 mps 743 mmHg 40%
13:00 +26°C° 0 mm 3 mps 743 mmHg 37%
14:00 +26°C° 0 mm 2 mps 742 mmHg 41%
15:00 +26°C° 0 mm 2 mps 742 mmHg 44%
16:00 +25°C° 0 mm 2 mps 741 mmHg 47%
17:00 +24°C° 0 mm 2 mps 741 mmHg 53%
18:00 +21°C° 0 mm 3 mps 742 mmHg 58%
19:00 +19°C° 0 mm 3 mps 742 mmHg 64%
20:00 +18°C° 0 mm 3 mps 742 mmHg 66%
21:00 +18°C° 0 mm 3 mps 741 mmHg 68%
22:00 +17°C° 0 mm 3 mps 741 mmHg 69%
23:00 +17°C° 0 mm 3 mps 741 mmHg 70%

Tomorrow, 24 September, Thursday

Time Temperature Precipitation Wind Pressure Humidity
00:00 +17°C° 0 mm 3 mps 741 mmHg 71%
01:00 +16°C° 0 mm 3 mps 741 mmHg 71%
02:00 +16°C° 0 mm 3 mps 741 mmHg 73%
03:00 +16°C° 0 mm 3 mps 741 mmHg 75%
04:00 +14°C° 0 mm 3 mps 741 mmHg 76%
05:00 +16°C° 0 mm 3 mps 741 mmHg 75%
06:00 +16°C° 0 mm 3 mps 741 mmHg 73%
07:00 +17°C° 0 mm 3 mps 741 mmHg 72%
08:00 +19°C° 0 mm 3 mps 741 mmHg 66%
09:00 +21°C° 0 mm 3 mps 741 mmHg 59%
10:00 +24°C° 0 mm 3 mps 741 mmHg 53%
11:00 +25°C° 0 mm 3 mps 741 mmHg 51%
12:00 +26°C° 0 mm 3 mps 741 mmHg 48%
13:00 +26°C° 0 mm 3 mps 741 mmHg 46%
14:00 +25°C° 0.1 mm 3 mps 741 mmHg 52%
15:00 +24°C° 0.1 mm 3 mps 741 mmHg 57%
16:00 +23°C° 0.1 mm 2 mps 741 mmHg 62%
17:00 +21°C° 0.5 mm 2 mps 741 mmHg 69%
18:00 +20°C° 0.5 mm 2 mps 741 mmHg 75%
19:00 +19°C° 0.5 mm 1 mps 741 mmHg 82%
20:00 +19°C° 0.2 mm 1 mps 741 mmHg 82%
21:00 +19°C° 0.2 mm 1 mps 741 mmHg 83%
22:00 +18°C° 0.2 mm 1 mps 741 mmHg 84%
23:00 +17°C° 0 mm 2 mps 741 mmHg 85%

Day after tomorrow, 25 September, Friday

Time Temperature Precipitation Wind Pressure Humidity
00:00 +17°C° 0 mm 2 mps 741 mmHg 87%
01:00 +16°C° 0 mm 2 mps 740 mmHg 88%
02:00 +16°C° 0 mm 2 mps 740 mmHg 89%
03:00 +16°C° 0 mm 2 mps 740 mmHg 90%
04:00 +16°C° 0 mm 3 mps 739 mmHg 91%
05:00 +16°C° 0 mm 3 mps 739 mmHg 90%
06:00 +15°C° 0 mm 4 mps 738 mmHg 88%
07:00 +17°C° 0 mm 4 mps 738 mmHg 86%
08:00 +17°C° 0 mm 5 mps 738 mmHg 80%
09:00 +20°C° 0 mm 5 mps 737 mmHg 74%
10:00 +21°C° 0 mm 6 mps 737 mmHg 68%
11:00 +22°C° 0 mm 7 mps 736 mmHg 63%
12:00 +23°C° 0 mm 7 mps 736 mmHg 59%
13:00 +24°C° 0 mm 7 mps 736 mmHg 54%
14:00 +24°C° 0.3 mm 6 mps 735 mmHg 57%
15:00 +23°C° 0.3 mm 5 mps 735 mmHg 60%
16:00 +22°C° 0.3 mm 4 mps 735 mmHg 62%
17:00 +21°C° 0.6 mm 4 mps 735 mmHg 68%
18:00 +20°C° 0.6 mm 4 mps 735 mmHg 73%
19:00 +19°C° 0.6 mm 4 mps 735 mmHg 79%
20:00 +18°C° 0.1 mm 4 mps 735 mmHg 81%
21:00 +18°C° 0.1 mm 3 mps 736 mmHg 83%
22:00 +17°C° 0.1 mm 3 mps 736 mmHg 85%
23:00 +17°C° 0 mm 2 mps 736 mmHg 88%

26 September, Saturday

Time Temperature Precipitation Wind Pressure Humidity
00:00 +16°C° 0 mm 2 mps 735 mmHg 90%
01:00 +15°C° 0 mm 1 mps 735 mmHg 93%
02:00 +15°C° 0 mm 2 mps 735 mmHg 93%
03:00 +15°C° 0 mm 2 mps 734 mmHg 94%
04:00 +15°C° 0 mm 2 mps 734 mmHg 95%
05:00 +16°C° 0.1 mm 3 mps 734 mmHg 92%
06:00 +15°C° 0.1 mm 4 mps 733 mmHg 90%
07:00 +17°C° 0.1 mm 4 mps 733 mmHg 88%
08:00 +16°C° 0 mm 5 mps 733 mmHg 86%
09:00 +17°C° 0 mm 5 mps 733 mmHg 84%
10:00 +19°C° 0 mm 6 mps 732 mmHg 82%
11:00 +19°C° 0 mm 6 mps 732 mmHg 79%
12:00 +20°C° 0 mm 6 mps 732 mmHg 76%
13:00 +21°C° 0 mm 6 mps 732 mmHg 73%
14:00 +20°C° 0.4 mm 5 mps 732 mmHg 77%
15:00 +19°C° 0.4 mm 5 mps 732 mmHg 81%
16:00 +19°C° 0.4 mm 4 mps 732 mmHg 85%
17:00 +19°C° 0.4 mm 4 mps 732 mmHg 83%
18:00 +19°C° 0.4 mm 4 mps 732 mmHg 82%
19:00 +18°C° 0.4 mm 4 mps 731 mmHg 81%
20:00 +19°C° 0.1 mm 5 mps 731 mmHg 75%
21:00 +19°C° 0.1 mm 6 mps 731 mmHg 70%
22:00 +20°C° 0.1 mm 7 mps 730 mmHg 64%
23:00 +20°C° 0.1 mm 7 mps 730 mmHg 66%

27 September, Sunday

Time Temperature Precipitation Wind Pressure Humidity
00:00 +19°C° 0.1 mm 6 mps 729 mmHg 69%
01:00 +19°C° 0.1 mm 6 mps 729 mmHg 71%
02:00 +17°C° 0.4 mm 6 mps 729 mmHg 76%
03:00 +16°C° 0.4 mm 6 mps 729 mmHg 81%
04:00 +15°C° 0.4 mm 7 mps 729 mmHg 86%
05:00 +14°C° 0.4 mm 6 mps 729 mmHg 87%
06:00 +13°C° 0.4 mm 5 mps 729 mmHg 87%
07:00 +12°C° 0.4 mm 4 mps 730 mmHg 88%
08:00 +12°C° 0.8 mm 4 mps 730 mmHg 88%
09:00 +11°C° 0.8 mm 4 mps 731 mmHg 88%
10:00 +11°C° 0.8 mm 4 mps 731 mmHg 88%
11:00 +10°C° 1.1 mm 5 mps 732 mmHg 88%
12:00 +9°C° 1.1 mm 6 mps 732 mmHg 88%
13:00 +9°C° 1.1 mm 6 mps 733 mmHg 87%
14:00 +9°C° 0.3 mm 6 mps 734 mmHg 86%
15:00 +8°C° 0.3 mm 6 mps 735 mmHg 84%
16:00 +8°C° 0.3 mm 6 mps 736 mmHg 82%
17:00 +7°C° 0 mm 5 mps 737 mmHg 83%
18:00 +7°C° 0 mm 4 mps 738 mmHg 85%
19:00 +6°C° 0 mm 4 mps 739 mmHg 87%
20:00 +6°C° 0 mm 4 mps 740 mmHg 87%
21:00 +5°C° 0 mm 3 mps 741 mmHg 88%
22:00 +5°C° 0 mm 3 mps 741 mmHg 89%
23:00 +4°C° 0 mm 3 mps 741 mmHg 90%

28 September, Monday

Time Temperature Precipitation Wind Pressure Humidity
00:00 +4°C° 0 mm 3 mps 742 mmHg 91%
01:00 +5°C° 0 mm 2 mps 742 mmHg 91%
02:00 +5°C° 0 mm 2 mps 742 mmHg 91%
03:00 +5°C° 0 mm 2 mps 742 mmHg 90%
04:00 +3°C° 0 mm 3 mps 742 mmHg 90%
05:00 +4°C° 0 mm 3 mps 743 mmHg 87%
06:00 +5°C° 0 mm 3 mps 743 mmHg 84%
07:00 +5°C° 0 mm 3 mps 743 mmHg 82%
08:00 +8°C° 0 mm 3 mps 743 mmHg 74%
09:00 +10°C° 0 mm 3 mps 743 mmHg 67%
10:00 +11°C° 0 mm 3 mps 743 mmHg 59%
11:00 +12°C° 0 mm 3 mps 743 mmHg 56%
12:00 +13°C° 0 mm 3 mps 743 mmHg 52%
13:00 +13°C° 0 mm 3 mps 743 mmHg 48%
14:00 +13°C° 0 mm 3 mps 743 mmHg 53%
15:00 +14°C° 0 mm 2 mps 742 mmHg 58%
16:00 +13°C° 0 mm 2 mps 742 mmHg 62%
17:00 +12°C° 0.1 mm 2 mps 742 mmHg 68%
18:00 +12°C° 0.1 mm 2 mps 742 mmHg 74%
19:00 +10°C° 0.1 mm 2 mps 742 mmHg 80%
20:00 +11°C° 0.3 mm 1 mps 742 mmHg 82%
21:00 +11°C° 0.3 mm 1 mps 742 mmHg 85%
22:00 +11°C° 0.3 mm 1 mps 742 mmHg 87%
23:00 +11°C° 0.1 mm 1 mps 742 mmHg 86%
Show more